cover

 

Get it on iTunes StoreListen on Apple Music

Cubic Records

#Trackname / Key / BPM / Publish dateArtists, Remixers / Label
1Zed Beats (Original Mix)80 bpm, 1A / Ab minor, 2021-09-10, House,  0  12
2Jungle Beats (Original Mix)127 bpm, 12A / Db minor, 2021-09-10, House,  0  12
3Smooth Beats (Original Mix)127 bpm, 2A / Eb minor, 2021-09-10, House,  0  12
4Speedy Beats (Original Mix)127 bpm, 4A / F minor, 2021-09-10, House,  0  12
5Midday Beat 1 (125 BPM)125 bpm, 10A / B minor, 2021-09-10, DJ Tools,  0  12
6Midday Beat 2 (125 BPM)125 bpm, 10A / B minor, 2021-09-10, DJ Tools,  0  12
7DD Beats 1 (124 BPM)124 bpm, 10B / D major, 2021-09-10, DJ Tools,  0  12
8DD Beats 2 (124 BPM)124 bpm, 10B / D major, 2021-09-10, DJ Tools,  0  12
9Anxious Beat 3 (128 BPM)128 bpm, 9A / E minor, 2021-09-10, DJ Tools,  0  12
10Anxious Beat 4 (128 BPM)128 bpm, 4A / F minor, 2021-09-10, DJ Tools,  0  12
11Crisp Drums 1 (127 BPM)127 bpm, 2A / Eb minor, 2021-09-10, DJ Tools,  0  12
12Crisp Drums 2 (127 BPM)127 bpm, 2A / Eb minor, 2021-09-10, DJ Tools,  0  12
13Firmer Ground (Original Mix)125 bpm, 5A / C minor, 2021-09-02, Tech House,  0  4
1
14Believe (Original Mix)125 bpm, 4A / F minor, 2021-09-02, Tech House,  0  4
15Boiled (Original Mix)124 bpm, 7A / D minor, 2021-09-02, Tech House,  0  4
1
16Unhinged (Original Mix)126 bpm, 9A / E minor, 2021-09-02, Tech House,  0  4
17Zed Beats (Original Mix)80 bpm, 1A / Ab minor, 2021-08-13, House,  0  12
18Jungle Beats (Original Mix)127 bpm, 12A / Db minor, 2021-08-13, House,  0  12
19Smooth Beats (Original Mix)127 bpm, 2A / Eb minor, 2021-08-13, House,  0  12
20Speedy Beats (Original Mix)127 bpm, 4A / F minor, 2021-08-13, House,  0  12
21Midday Beat 1 (125 BPM)125 bpm, 10A / B minor, 2021-08-13, DJ Tools,  0  12
22Midday Beat 2 (125 BPM)125 bpm, 10A / B minor, 2021-08-13, DJ Tools,  0  12
23DD Beats 1 (124 BPM)124 bpm, 10B / D major, 2021-08-13, DJ Tools,  0  12
24DD Beats 2 (124 BPM)124 bpm, 10B / D major, 2021-08-13, DJ Tools,  0  12
25Anxious Beat 3 (128 BPM)128 bpm, 9A / E minor, 2021-08-13, DJ Tools,  0  12
26Anxious Beat 4 (128 BPM)128 bpm, 4A / F minor, 2021-08-13, DJ Tools,  0  12
27Crisp Drums 1 (127 BPM)127 bpm, 2A / Eb minor, 2021-08-13, DJ Tools,  0  12
28Crisp Drums 2 (127 BPM)127 bpm, 2A / Eb minor, 2021-08-13, DJ Tools,  0  12
29Sacrifice (Original Mix)125 bpm, 12A / Db minor, 2021-08-12, Tech House,  0  6
30Cosmosis (Original Mix)127 bpm, 7B / F major, 2021-08-12, Tech House,  0  6
31Flatout (Original Mix)128 bpm, 6A / G minor, 2021-08-12, Tech House,  0  6
32Havana Beats (Original Mix)125 bpm, 6A / G minor, 2021-08-12, Tech House,  0  6
33Change (Original Mix)123 bpm, 8A / A minor, 2021-08-12, Tech House,  0  6
34Recoil (Original Mix)124 bpm, 10A / B minor, 2021-08-12, Tech House,  0  6
35Firmer Ground (Original Mix)125 bpm, 5A / C minor, 2021-07-30, Tech House,  0  4
36Believe (Original Mix)125 bpm, 4A / F minor, 2021-07-30, Tech House,  0  4
37Boiled (Original Mix)124 bpm, 7A / D minor, 2021-07-30, Tech House,  0  4
38Unhinged (Original Mix)126 bpm, 9A / E minor, 2021-07-30, Tech House,  0  4
39Tech Drums (Original Mix)123 bpm, 5A / C minor, 2021-07-29, Tech House,  0  24
40Erotic Drums (Original Mix)123 bpm, 1A / Ab minor, 2021-07-29, Minimal / Deep Tech,  0  24
41Shiv Drums (Original Mix)123 bpm, 7A / D minor, 2021-07-29, House,  0  24
42Gimp Drums (Original Mix)123 bpm, 6A / G minor, 2021-07-29, Techno (Peak Time / Driving),  0  24
43Glitch Vocal 17 (125 BPM)124 bpm, 12A / Db minor, 2021-07-29, DJ Tools,  0  24
44Glitch Vocal 18 (125 BPM)125 bpm, / , 2021-07-29, DJ Tools,  0  24
45Glitch Vocal 19 (125 BPM)94 bpm, 11B / A major, 2021-07-29, DJ Tools,  0  24
46Glitch Vocal 20 (125 BPM)125 bpm, / , 2021-07-29, DJ Tools,  0  24
47No Kick Drums 17 (125 BPM)125 bpm, 12B / E major, 2021-07-29, DJ Tools,  0  24
48No Kick Drums 18 (125 BPM)156 bpm, 9B / G major, 2021-07-29, DJ Tools,  0  24
49No Kick Drums 19 (125 BPM)125 bpm, 2A / Eb minor, 2021-07-29, DJ Tools,  0  24
50No Kick Drums 20 (125 BPM)125 bpm, 4A / F minor, 2021-07-29, DJ Tools,  0  24
51Music Tool 17 (125 BPM)94 bpm, 7A / D minor, 2021-07-29, DJ Tools,  0  24
52Music Tool 18 (125 BPM)78 bpm, / , 2021-07-29, DJ Tools,  0  24
53Music Tool 19 (125 BPM)94 bpm, 7B / F major, 2021-07-29, DJ Tools,  0  24
54Music Tool 20 (125 BPM)125 bpm, 5A / C minor, 2021-07-29, DJ Tools,  0  24
55Bass Loop 17 (125 BPM)125 bpm, / , 2021-07-29, DJ Tools,  0  24
56Bass Loop 18 (125 BPM)94 bpm, 2A / Eb minor, 2021-07-29, DJ Tools,  0  24
57Bass Loop 19 (125 BPM)125 bpm, 2A / Eb minor, 2021-07-29, DJ Tools,  0  24
58Bass Loop 20 (125 BPM)94 bpm, 10A / B minor, 2021-07-29, DJ Tools,  0  24
59Kick Loop 17 (125 BPM)125 bpm, / , 2021-07-29, DJ Tools,  0  24
60Kick Loop 18 (125 BPM)125 bpm, 9B / G major, 2021-07-29, DJ Tools,  0  24
61Kick Loop 19 (125 BPM)125 bpm, 7B / F major, 2021-07-29, DJ Tools,  0  24
62Kick Loop 20 (125 BPM)125 bpm, 7A / D minor, 2021-07-29, DJ Tools,  0  24
63Sub Tropic (Original Mix)125 bpm, 12A / Db minor, 2021-07-23, Tech House,  0  6
64Underneath (Original Mix)125 bpm, 5A / C minor, 2021-07-23, Tech House,  0  6
65Pangea (Original Mix)123 bpm, / , 2021-07-23, Tech House,  0  6
66Beware (Original Mix)123 bpm, 7A / D minor, 2021-07-23, Tech House,  0  6
67Goose (Original Mix)125 bpm, 7A / D minor, 2021-07-23, Tech House,  0  6
68Traveling (Original Mix)125 bpm, 11B / A major, 2021-07-23, Tech House,  0  6
69Rockin Beats (Original Mix)125 bpm, / , 2021-07-22, Tech House,  0  24
70Focus Drums (Original Mix)125 bpm, 12A / Db minor, 2021-07-22, Deep House,  0  24
71Phat Drums (Original Mix)125 bpm, 10A / B minor, 2021-07-22, House,  0  24
72Phat Drums (Original Mix)125 bpm, 1A / Ab minor, 2021-07-22, Techno (Peak Time / Driving),  0  24
73Glitch Vocal 13 (125 BPM)125 bpm, / , 2021-07-22, DJ Tools,  0  24
74Glitch Vocal 14 (125 BPM)125 bpm, 6A / G minor, 2021-07-22, DJ Tools,  0  24
75Glitch Vocal 15 (125 BPM)83 bpm, 2A / Eb minor, 2021-07-22, DJ Tools,  0  24
76Glitch Vocal 16 (125 BPM)78 bpm, 2A / Eb minor, 2021-07-22, DJ Tools,  0  24
77No Kick 13 (125 BPM)125 bpm, 4A / F minor, 2021-07-22, DJ Tools,  0  24
78No Kick 14 (125 BPM)125 bpm, 9A / E minor, 2021-07-22, DJ Tools,  0  24
79No Kick 15 (125 BPM)125 bpm, / , 2021-07-22, DJ Tools,  0  24
80No Kick 16 (125 BPM)125 bpm, 2A / Eb minor, 2021-07-22, DJ Tools,  0  24
81Music Tool 13 (125 BPM)94 bpm, / , 2021-07-22, DJ Tools,  0  24
82Music Tool 14 (125 BPM)94 bpm, / , 2021-07-22, DJ Tools,  0  24
83Music Tool 15 (125 BPM)125 bpm, 7B / F major, 2021-07-22, DJ Tools,  0  24
84Music Tool 16 (125 BPM)125 bpm, / , 2021-07-22, DJ Tools,  0  24
85Bass Loop 13 (125 BPM)108 bpm, 8B / C major, 2021-07-22, DJ Tools,  0  24
86Bass Loop 14 (125 BPM)94 bpm, 10B / D major, 2021-07-22, DJ Tools,  0  24
87Bass Loop 15 (125 BPM)94 bpm, 9A / E minor, 2021-07-22, DJ Tools,  0  24
88Bass Loop 16 (125 BPM)109 bpm, 7A / D minor, 2021-07-22, DJ Tools,  0  24
89Kick Loop 13 (125 BPM)125 bpm, 1B / B major, 2021-07-22, DJ Tools,  0  24
90Kick Loop 14 (125 BPM)125 bpm, 8A / A minor, 2021-07-22, DJ Tools,  0  24
91Kick Loop 15 (125 BPM)125 bpm, 8B / C major, 2021-07-22, DJ Tools,  0  24
92Kick Loop 16 (125 BPM)125 bpm, 4B / Ab major, 2021-07-22, DJ Tools,  0  24
93Addict Drums (Original Mix)126 bpm, 2A / Eb minor, 2021-07-15, House,  0  24
94Ball Drums (Original Mix)126 bpm, 2A / Eb minor, 2021-07-15, Tech House,  0  24
95Addicted Drums (Original Mix)125 bpm, 9B / G major, 2021-07-15, Minimal / Deep Tech,  0  24
96Classic Drums (Original Mix)126 bpm, 4A / F minor, 2021-07-15, Tech House,  0  24
97Glitch Vocal 09 (125 BPM)125 bpm, 1B / B major, 2021-07-15, DJ Tools,  0  24
98Glitch Vocal 10 (125 BPM)125 bpm, 7B / F major, 2021-07-15, DJ Tools,  0  24
99Glitch Vocal 11 (125 BPM)125 bpm, 9A / E minor, 2021-07-15, DJ Tools,  0  24
100Glitch Vocal 12 (125 BPM)125 bpm, / , 2021-07-15, DJ Tools,  0  24
×

Sign in

Sign in to access your personalized pages, follow artists and labels you love, and create playlists fromyour favorite tracks.

Please wait...